Florennes, Belgium

8:44 PM CEST on August 29, 2016 (GMT +0200)
Florennes Air Base

Weather History for EBFS - February, 2013

Change the Weather History Date:

Wednesday, February 20, 2013

  Actual Average Record
Temperature  
Mean Temperature 31 °F -  
Max Temperature 36 °F 44 °F 55 °F (2007)
Min Temperature 26 °F 36 °F 26 °F (2012)
Degree Days  
Heating Degree Days 34    
Moisture  
Dew Point 27 °F    
Average Humidity 78    
Maximum Humidity 100    
Minimum Humidity 45    
Precipitation  
Precipitation 0.00 in - - ()
Sea Level Pressure  
Sea Level Pressure 30.13 in    
Wind  
Wind Speed 9 mph ()    
Max Wind Speed 16 mph    
Max Gust Speed -    
Visibility 5.2 miles    
Events Fog    
Averages and records for this station are not official NWS values.
T = Trace of Precipitation, MM = Missing Value Source: Averaged Metar Reports

Daily Weather History Graph

Daily Weather History Graph

Search for Another Location

Airport or City:

Trip Planner

Search our weather history database for the weather conditions in past years. The results will help you decide how hot, cold, wet, or windy it might be!

Date:

Astronomy

Feb. 20, 2013 Rise Set
Actual Time 7:42 AM CET 6:08 PM CET
Civil Twilight 7:09 AM CET 6:41 PM CET
Nautical Twilight 6:32 AM CET 7:19 PM CET
Astronomical Twilight 5:54 AM CET 7:56 PM CET
Moon 12:57 PM CET (2/20) 4:09 AM CET (2/20)
Length of Visible Light 11h 31m
Length of Day
10h 25m
Waxing Gibbous, 74% of the Moon is Illuminated
Feb 20
Waxing Gibbous
Feb 25
Full
Mar 4
Last Quarter
Mar 11
New
Mar 19
First Quarter

Hourly Weather History & Observations

Time (CET) Temp. Windchill Dew Point Humidity Pressure Visibility Wind Dir Wind Speed Gust Speed Precip Events Conditions
12:55 AM 35.6 °F 31.7 °F 32.0 °F 87% 30.04 in 3.1 mi NE 4.6 mph - N/A   Mostly Cloudy
1:15 AM 35.6 °F 30.7 °F 32.0 °F 87% 30.04 in - NE 5.8 mph - N/A   Mostly Cloudy
1:25 AM 35.6 °F 30.7 °F 33.8 °F 93% 30.06 in 2.5 mi NE 5.8 mph - N/A   Mostly Cloudy
1:55 AM 35.6 °F 30.7 °F 33.8 °F 93% 30.06 in 2.5 mi ENE 5.8 mph - N/A   Mostly Cloudy
2:25 AM 35.6 °F 29.9 °F 33.8 °F 93% 30.06 in 2.5 mi ENE 6.9 mph - N/A   Overcast
2:39 AM 35.6 °F 28.6 °F 35.6 °F 100% 30.06 in 2.5 mi ENE 9.2 mph - N/A   Overcast
2:49 AM 35.6 °F 28.6 °F 35.6 °F 100% 30.06 in 2.5 mi ENE 9.2 mph - N/A   Overcast
2:55 AM 35.6 °F 29.2 °F 35.6 °F 100% 30.06 in 0.4 mi ENE 8.1 mph - N/A Fog Fog
3:25 AM 35.6 °F 29.2 °F 35.6 °F 100% 30.06 in 0.4 mi ENE 8.1 mph - N/A Fog Fog
3:55 AM 35.6 °F 28.0 °F 33.8 °F 93% 30.06 in 0.7 mi East 10.4 mph - N/A   Mostly Cloudy
4:00 AM 36 °F - 34 °F 89% 30.12 in 1 mi East 11.2 mph - - Fog Light Fog
4:25 AM 35.6 °F 29.2 °F 33.8 °F 93% 30.06 in 1.9 mi ENE 8.1 mph - N/A   Mostly Cloudy
4:55 AM 35.6 °F 29.2 °F 33.8 °F 93% 30.06 in 2.5 mi ENE 8.1 mph - N/A   Mostly Cloudy
5:13 AM 33.8 °F 25.8 °F 33.8 °F 100% 30.06 in 1.2 mi NE 10.4 mph - N/A   Mostly Cloudy
5:19 AM 33.8 °F 25.8 °F 33.8 °F 100% 30.06 in 0.6 mi NE 10.4 mph - N/A   Mostly Cloudy
5:25 AM 33.8 °F 25.8 °F 33.8 °F 100% 30.06 in 0.7 mi NE 10.4 mph - N/A   Mostly Cloudy
6:23 AM 33.8 °F 26.4 °F 32.0 °F 93% 30.09 in 1.2 mi NE 9.2 mph - N/A   Mostly Cloudy
6:25 AM 33.8 °F 25.8 °F 32.0 °F 93% 30.09 in 1.2 mi NE 10.4 mph - N/A   Mostly Cloudy
6:55 AM 33.8 °F 27.0 °F 32.0 °F 93% 30.09 in 1.9 mi NE 8.1 mph - N/A   Mostly Cloudy
7:00 AM 33 °F - 31 °F 91% 30.15 in 2 mi NE 8.9 mph - -   Mist
7:25 AM 32.0 °F 23.6 °F 30.2 °F 93% 30.09 in 1.6 mi NE 10.4 mph - N/A   Mostly Cloudy
7:55 AM 30.2 °F 22.6 °F 30.2 °F 100% 30.12 in 2.2 mi ENE 8.1 mph - N/A   Mostly Cloudy
8:25 AM 30.2 °F 21.9 °F 28.4 °F 93% 30.12 in 3.7 mi NE 9.2 mph - N/A   Mostly Cloudy
8:55 AM 30.2 °F 23.4 °F 26.6 °F 86% 30.12 in 5.0 mi ENE 6.9 mph - N/A   Mostly Cloudy
9:55 AM 30.2 °F 21.3 °F 26.6 °F 86% 30.15 in 6.2 mi East 10.4 mph - N/A   Scattered Clouds
10:00 AM 31 °F - 27 °F 77% 30.21 in 11 mi ENE 11.2 mph - -   Partly Cloudy
10:25 AM 32.0 °F 24.2 °F 26.6 °F 80% 30.15 in 6.2 mi East 9.2 mph - N/A   Scattered Clouds
10:55 AM 33.8 °F 26.4 °F 26.6 °F 75% 30.15 in 6.2 mi East 9.2 mph - N/A   Scattered Clouds
11:25 AM 33.8 °F 25.3 °F 24.8 °F 70% 30.15 in 6.2 mi East 11.5 mph - N/A   Scattered Clouds
11:55 AM 33.8 °F 26.4 °F 26.6 °F 75% 30.15 in 6.2 mi East 9.2 mph - N/A   Scattered Clouds
12:25 PM 35.6 °F 26.6 °F 26.6 °F 70% 30.15 in 6.2 mi ENE 13.8 mph - N/A   Scattered Clouds
12:55 PM 35.6 °F 28.6 °F 24.8 °F 65% 30.15 in 6.2 mi ENE 9.2 mph - N/A   Partly Cloudy
1:00 PM 36 °F - 25 °F 52% 30.21 in 16 mi ENE 13.4 mph - -   Scattered Clouds
1:25 PM 35.6 °F 26.2 °F 23.0 °F 60% 30.15 in 6.2 mi ENE 15.0 mph - N/A   Partly Cloudy
1:55 PM 35.6 °F 28.0 °F 23.0 °F 60% 30.15 in 6.2 mi East 10.4 mph - N/A   Partly Cloudy
2:25 PM 37.4 °F 28.5 °F 23.0 °F 56% 30.15 in 6.2 mi ENE 15.0 mph - N/A   Partly Cloudy
2:55 PM 35.6 °F 27.5 °F 23.0 °F 60% 30.15 in 6.2 mi East 11.5 mph - N/A   Partly Cloudy
3:25 PM 35.6 °F 26.6 °F 23.0 °F 60% 30.15 in 6.2 mi East 13.8 mph - N/A   Partly Cloudy
3:55 PM 35.6 °F 27.5 °F 21.2 °F 56% 30.15 in 6.2 mi East 11.5 mph - N/A   Partly Cloudy
4:00 PM 35 °F - 21 °F 45% 30.21 in 16 mi ENE 15.7 mph - -   Scattered Clouds
4:25 PM 35.6 °F 25.9 °F 21.2 °F 56% 30.15 in 6.2 mi ENE 16.1 mph - N/A   Partly Cloudy
4:55 PM 33.8 °F 25.3 °F 21.2 °F 60% 30.15 in 6.2 mi East 11.5 mph - N/A   Partly Cloudy
5:25 PM 32.0 °F 21.2 °F 21.2 °F 64% 30.15 in 6.2 mi ENE 16.1 mph - N/A   Partly Cloudy
6:25 PM 32.0 °F 23.0 °F 19.4 °F 60% 30.15 in 6.2 mi East 11.5 mph - N/A   Scattered Clouds
6:55 PM 32.0 °F 23.0 °F 21.2 °F 64% 30.15 in 6.2 mi East 11.5 mph - N/A   Mostly Cloudy
7:00 PM 32 °F - 20 °F 50% 30.23 in 16 mi ENE 15.7 mph - -   Mostly Cloudy
7:25 PM 30.2 °F 19.8 °F 19.4 °F 64% 30.18 in 6.2 mi ENE 13.8 mph - N/A   Mostly Cloudy
7:55 PM 30.2 °F 20.8 °F 19.4 °F 64% 30.18 in 6.2 mi East 11.5 mph - N/A   Mostly Cloudy
8:25 PM 30.2 °F 19.8 °F 21.2 °F 69% 30.18 in 6.2 mi ENE 13.8 mph - N/A   Mostly Cloudy
8:55 PM 28.4 °F 18.5 °F 21.2 °F 74% 30.18 in 6.2 mi ENE 11.5 mph - N/A   Mostly Cloudy
9:25 PM 28.4 °F 18.0 °F 21.2 °F 74% 30.18 in 6.2 mi ENE 12.7 mph - N/A   Mostly Cloudy
9:55 PM 28.4 °F 18.5 °F 21.2 °F 74% 30.18 in 6.2 mi ENE 11.5 mph - N/A   Mostly Cloudy
10:00 PM 28 °F - 22 °F 69% 30.25 in 16 mi ENE 13.4 mph - -   Overcast
10:25 PM 28.4 °F 19.1 °F 21.2 °F 74% 30.18 in 6.2 mi ENE 10.4 mph - N/A   Mostly Cloudy
10:55 PM 28.4 °F 19.7 °F 23.0 °F 80% 30.18 in 6.2 mi ENE 9.2 mph - N/A   Mostly Cloudy
11:25 PM 26.6 °F 15.2 °F 21.2 °F 80% 30.18 in 6.2 mi ENE 13.8 mph - N/A   Scattered Clouds
11:55 PM 26.6 °F 16.8 °F 21.2 °F 80% 30.18 in 6.2 mi ENE 10.4 mph - N/A   Scattered Clouds